timestamp, 		tick, 	maxbdip, 	maxindex, 	minbdip, 	minindex, 	change,	steepness, 	maxaftdip, 	maxaftidx, 	minaftdip, 	minaftindex, 	rise, 	alert
13042021_19:42:46,	2.183,	2.190,		584,		2.004,		-20657,		-0.30,	-0.09,		1000000.00,	-1,		1000000.00,		-1,		0.00,  Not sold yet
13042021_19:42:57,	2.183,	2.190,		583,		2.004,		-20658,		-0.32,	0.02,		1000000.00,	-1,		1000000.00,		-1,		0.00,  Not sold yet
13042021_19:43:07,	2.183,	2.190,		582,		2.004,		-20659,		-0.33,	0.03,		1000000.00,	-1,		1000000.00,		-1,		0.00,  Not sold yet
13042021_19:43:17,	2.187,	2.190,		581,		2.004,		-20660,		-0.13,	-0.07,		1000000.00,	-1,		1000000.00,		-1,		0.00,  Not sold yet
13042021_19:43:28,	2.187,	2.190,		580,		2.004,		-20661,		-0.16,	-0.17,		1000000.00,	-1,		1000000.00,		-1,		0.00,  Not sold yet
13042021_19:43:38,	2.187,	2.190,		579,		2.004,		-20662,		-0.16,	-0.17,		1000000.00,	-1,		1000000.00,		-1,		0.00,  Not sold yet
13042021_19:43:50,	2.185,	2.190,		578,		2.004,		-20663,		-0.22,	-0.04,		1000000.00,	-1,		1000000.00,		-1,		0.00,  Not sold yet
13042021_19:44:01,	2.183,	2.190,		577,		2.004,		-20664,		-0.30,	0.12,		1000000.00,	-1,		1000000.00,		-1,		0.00,  Not sold yet
13042021_19:44:11,	2.183,	2.190,		576,		2.004,		-20665,		-0.30,	0.15,		1000000.00,	-1,		1000000.00,		-1,		0.00,  Not sold yet
13042021_19:44:22,	2.183,	2.190,		575,		2.004,		-20666,		-0.31,	0.11,		1000000.00,	-1,		1000000.00,		-1,		0.00,  Not sold yet
13042021_19:44:32,	2.186,	2.190,		574,		2.004,		-20667,		-0.18,	-0.02,		1000000.00,	-1,		1000000.00,		-1,		0.00,  Not sold yet
13042021_19:44:43,	2.186,	2.190,		573,		2.004,		-20668,		-0.18,	-0.12,		1000000.00,	-1,		1000000.00,		-1,		0.00,  Not sold yet
13042021_19:44:53,	2.181,	2.190,		572,		2.004,		-20669,		-0.40,	-0.01,		1000000.00,	-1,		1000000.00,		-1,		0.00,  Not sold yet
13042021_19:45:03,	2.181,	2.190,		571,		2.004,		-20670,		-0.40,	0.16,		1000000.00,	-1,		1000000.00,		-1,		0.00,  Not sold yet
13042021_19:45:14,	2.181,	2.190,		570,		2.004,		-20671,		-0.40,	0.22,		1000000.00,	-1,		1000000.00,		-1,		0.00,  Not sold yet
13042021_19:45:24,	2.181,	2.190,		569,		2.004,		-20672,		-0.40,	0.11,		1000000.00,	-1,		1000000.00,		-1,		0.00,  Not sold yet
13042021_19:45:35,	2.181,	2.190,		568,		2.004,		-20673,		-0.40,	0.00,		1000000.00,	-1,		1000000.00,		-1,		0.00,  Not sold yet
13042021_19:45:46,	2.181,	2.190,		567,		2.004,		-20674,		-0.40,	0.00,		1000000.00,	-1,		1000000.00,		-1,		0.00,  Not sold yet
13042021_19:45:57,	2.181,	2.190,		566,		2.004,		-20675,		-0.40,	0.00,		1000000.00,	-1,		1000000.00,		-1,		0.00,  Not sold yet
13042021_19:46:07,	2.181,	2.190,		565,		2.004,		-20676,		-0.40,	0.00,		1000000.00,	-1,		1000000.00,		-1,		0.00,  Not sold yet
13042021_19:46:18,	2.181,	2.190,		564,		2.004,		-20677,		-0.40,	0.00,		1000000.00,	-1,		1000000.00,		-1,		0.00,  Not sold yet
13042021_19:46:28,	2.181,	2.190,		563,		2.004,		-20678,		-0.40,	0.00,		1000000.00,	-1,		1000000.00,		-1,		0.00,  Not sold yet
13042021_19:46:38,	2.181,	2.190,		562,		2.004,		-20679,		-0.40,	0.00,		1000000.00,	-1,		1000000.00,		-1,		0.00,  Not sold yet
13042021_19:46:49,	2.181,	2.190,		561,		2.004,		-20680,		-0.40,	0.00,		1000000.00,	-1,		1000000.00,		-1,		0.00,  Not sold yet
13042021_19:46:59,	2.181,	2.190,		560,		2.004,		-20681,		-0.40,	0.00,		1000000.00,	-1,		1000000.00,		-1,		0.00,  Not sold yet
13042021_19:47:10,	2.188,	2.190,		559,		2.004,		-20682,		-0.07,	-0.17,		1000000.00,	-1,		1000000.00,		-1,		0.00,  Not sold yet
13042021_19:47:20,	2.189,	2.190,		558,		2.004,		-20683,		-0.03,	-0.35,		1000000.00,	-1,		1000000.00,		-1,		0.00,  Not sold yet
13042021_19:47:30,	2.189,	2.190,		557,		2.004,		-20684,		-0.03,	-0.37,		1000000.00,	-1,		1000000.00,		-1,		0.00,  Not sold yet
13042021_19:47:41,	2.189,	2.190,		556,		2.004,		-20685,		-0.03,	-0.20,		1000000.00,	-1,		1000000.00,		-1,		0.00,  Not sold yet
13042021_19:47:53,	2.186,	2.190,		555,		2.004,		-20686,		-0.18,	0.06,		1000000.00,	-1,		1000000.00,		-1,		0.00,  Not sold yet
13042021_19:48:04,	2.186,	2.190,		554,		2.004,		-20687,		-0.18,	0.15,		1000000.00,	-1,		1000000.00,		-1,		0.00,  Not sold yet
13042021_19:48:14,	2.189,	2.190,		553,		2.004,		-20688,		-0.03,	0.08,		1000000.00,	-1,		1000000.00,		-1,		0.00,  Not sold yet
13042021_19:48:24,	2.189,	2.190,		552,		2.004,		-20689,		-0.03,	-0.08,		1000000.00,	-1,		1000000.00,		-1,		0.00,  Not sold yet
13042021_19:48:35,	2.188,	2.190,		551,		2.004,		-20690,		-0.07,	-0.13,		1000000.00,	-1,		1000000.00,		-1,		0.00,  Not sold yet
13042021_19:48:45,	2.187,	2.190,		550,		2.004,		-20691,		-0.12,	-0.01,		1000000.00,	-1,		1000000.00,		-1,		0.00,  Not sold yet
13042021_19:48:56,	2.187,	2.190,		549,		2.004,		-20692,		-0.12,	0.09,		1000000.00,	-1,		1000000.00,		-1,		0.00,  Not sold yet
13042021_19:49:06,	2.187,	2.190,		548,		2.004,		-20693,		-0.12,	0.07,		1000000.00,	-1,		1000000.00,		-1,		0.00,  Not sold yet
13042021_19:49:16,	2.189,	2.190,		547,		2.004,		-20694,		-0.05,	-0.01,		1000000.00,	-1,		1000000.00,		-1,		0.00,  Not sold yet
13042021_19:49:27,	2.188,	2.190,		546,		2.004,		-20695,		-0.08,	-0.06,		1000000.00,	-1,		1000000.00,		-1,		0.00,  Not sold yet
13042021_19:49:37,	2.186,	2.190,		545,		2.004,		-20696,		-0.16,	0.00,		1000000.00,	-1,		1000000.00,		-1,		0.00,  Not sold yet
13042021_19:49:49,	2.186,	2.190,		544,		2.004,		-20697,		-0.16,	0.08,		1000000.00,	-1,		1000000.00,		-1,		0.00,  Not sold yet
13042021_19:50:00,	2.186,	2.190,		543,		2.004,		-20698,		-0.16,	0.10,		1000000.00,	-1,		1000000.00,		-1,		0.00,  Not sold yet
13042021_19:50:10,	2.186,	2.190,		542,		2.004,		-20699,		-0.16,	0.04,		1000000.00,	-1,		1000000.00,		-1,		0.00,  Not sold yet
13042021_19:50:20,	2.189,	2.190,		541,		2.004,		-20700,		-0.04,	-0.06,		1000000.00,	-1,		1000000.00,		-1,		0.00,  Not sold yet
13042021_19:50:31,	2.189,	2.190,		540,		2.004,		-20701,		-0.04,	-0.13,		1000000.00,	-1,		1000000.00,		-1,		0.00,  Not sold yet
13042021_19:50:41,	2.190,	2.190,		539,		2.004,		-20702,		-0.00,	-0.14,		1000000.00,	-1,		1000000.00,		-1,		0.00,  Not sold yet
13042021_19:50:52,	2.194,	2.191,		719,		2.004,		-20703,		0.15,	-0.19,		1000000.00,	-1,		1000000.00,		-1,		0.00,  Not sold yet
13042021_19:51:02,	2.194,	2.191,		718,		2.004,		-20704,		0.12,	-0.21,		1000000.00,	-1,		1000000.00,		-1,		0.00,  Not sold yet
13042021_19:51:12,	2.194,	2.192,		717,		2.004,		-20705,		0.09,	-0.20,		1000000.00,	-1,		1000000.00,		-1,		0.00,  Not sold yet
13042021_19:51:23,	2.195,	2.193,		719,		2.004,		-20706,		0.10,	-0.11,		1000000.00,	-1,		1000000.00,		-1,		0.00,  Not sold yet
13042021_19:51:34,	2.195,	2.194,		719,		2.004,		-20707,		0.06,	-0.05,		1000000.00,	-1,		1000000.00,		-1,		0.00,  Not sold yet
13042021_19:51:45,	2.200,	2.195,		719,		2.004,		-20708,		0.22,	-0.16,		1000000.00,	-1,		1000000.00,		-1,		0.00,  Not sold yet
13042021_19:51:55,	2.220,	2.200,		719,		2.004,		-20709,		0.91,	-0.70,		1000000.00,	-1,		1000000.00,		-1,		0.00,  Not sold yet
13042021_19:52:06,	2.220,	2.204,		719,		2.004,		-20710,		0.73,	-1.13,		1000000.00,	-1,		1000000.00,		-1,		0.00,  Not sold yet
13042021_19:52:16,	2.213,	2.208,		718,		2.004,		-20711,		0.22,	-0.87,		1000000.00,	-1,		1000000.00,		-1,		0.00,  Not sold yet
13042021_19:52:26,	2.207,	2.212,		717,		2.004,		-20712,		-0.23,	-0.02,		1000000.00,	-1,		1000000.00,		-1,		0.00,  Not sold yet
13042021_19:52:37,	2.213,	2.217,		716,		2.004,		-20713,		-0.17,	0.44,		1000000.00,	-1,		1000000.00,		-1,		0.00,  Not sold yet
13042021_19:52:47,	2.207,	2.220,		715,		2.004,		-20714,		-0.58,	0.30,		1000000.00,	-1,		1000000.00,		-1,		0.00,  Not sold yet
13042021_19:52:58,	2.211,	2.220,		714,		2.004,		-20715,		-0.40,	0.05,		1000000.00,	-1,		1000000.00,		-1,		0.00,  Not sold yet
13042021_19:53:08,	2.206,	2.220,		713,		2.004,		-20716,		-0.63,	0.07,		1000000.00,	-1,		1000000.00,		-1,		0.00,  Not sold yet
13042021_19:53:19,	2.212,	2.220,		712,		2.004,		-20717,		-0.38,	0.05,		1000000.00,	-1,		1000000.00,		-1,		0.00,  Not sold yet
13042021_19:53:30,	2.212,	2.220,		711,		2.004,		-20718,		-0.38,	-0.11,		1000000.00,	-1,		1000000.00,		-1,		0.00,  Not sold yet
13042021_19:53:41,	2.212,	2.220,		710,		2.004,		-20719,		-0.38,	-0.13,		1000000.00,	-1,		1000000.00,		-1,		0.00,  Not sold yet
13042021_19:53:52,	2.212,	2.220,		709,		2.004,		-20720,		-0.38,	-0.13,		1000000.00,	-1,		1000000.00,		-1,		0.00,  Not sold yet
13042021_19:54:02,	2.211,	2.220,		708,		2.004,		-20721,		-0.41,	0.01,		1000000.00,	-1,		1000000.00,		-1,		0.00,  Not sold yet
13042021_19:54:13,	2.206,	2.220,		707,		2.004,		-20722,		-0.63,	0.14,		1000000.00,	-1,		1000000.00,		-1,		0.00,  Not sold yet
13042021_19:54:23,	2.206,	2.220,		706,		2.004,		-20723,		-0.63,	0.25,		1000000.00,	-1,		1000000.00,		-1,		0.00,  Not sold yet
13042021_19:54:34,	2.206,	2.220,		705,		2.004,		-20724,		-0.62,	0.24,		1000000.00,	-1,		1000000.00,		-1,		0.00,  Not sold yet
13042021_19:54:44,	2.236,	2.223,		719,		2.004,		-20725,		0.58,	-0.56,		1000000.00,	-1,		1000000.00,		-1,		0.00,  Not sold yet
13042021_19:54:55,	2.227,	2.225,		718,		2.004,		-20726,		0.06,	-1.13,		1000000.00,	-1,		1000000.00,		-1,		0.00,  Not sold yet
13042021_19:55:05,	2.227,	2.228,		717,		2.004,		-20727,		-0.05,	-0.93,		1000000.00,	-1,		1000000.00,		-1,		0.00,  Not sold yet
13042021_19:55:15,	2.222,	2.230,		716,		2.004,		-20728,		-0.38,	-0.15,		1000000.00,	-1,		1000000.00,		-1,		0.00,  Not sold yet
13042021_19:55:26,	2.222,	2.233,		715,		2.004,		-20729,		-0.49,	0.41,		1000000.00,	-1,		1000000.00,		-1,		0.00,  Not sold yet
13042021_19:55:37,	2.218,	2.236,		714,		2.004,		-20730,		-0.76,	0.29,		1000000.00,	-1,		1000000.00,		-1,		0.00,  Not sold yet
13042021_19:55:49,	2.220,	2.236,		713,		2.004,		-20731,		-0.68,	0.22,		1000000.00,	-1,		1000000.00,		-1,		0.00,  Not sold yet
13042021_19:55:59,	2.220,	2.236,		712,		2.004,		-20732,		-0.70,	0.08,		1000000.00,	-1,		1000000.00,		-1,		0.00,  Not sold yet
13042021_19:56:10,	2.220,	2.236,		711,		2.004,		-20733,		-0.70,	0.01,		1000000.00,	-1,		1000000.00,		-1,		0.00,  Not sold yet
13042021_19:56:20,	2.221,	2.236,		710,		2.004,		-20734,		-0.65,	-0.05,		1000000.00,	-1,		1000000.00,		-1,		0.00,  Not sold yet
13042021_19:56:30,	2.216,	2.236,		709,		2.004,		-20735,		-0.89,	0.08,		1000000.00,	-1,		1000000.00,		-1,		0.00,  Not sold yet
13042021_19:56:41,	2.216,	2.236,		708,		2.004,		-20736,		-0.89,	0.20,		1000000.00,	-1,		1000000.00,		-1,		0.00,  Not sold yet
13042021_19:56:51,	2.228,	2.236,		707,		2.004,		-20737,		-0.35,	-0.05,		1000000.00,	-1,		1000000.00,		-1,		0.00,  Not sold yet
13042021_19:57:02,	2.229,	2.236,		706,		2.004,		-20738,		-0.29,	-0.45,		1000000.00,	-1,		1000000.00,		-1,		0.00,  Not sold yet
13042021_19:57:12,	2.221,	2.236,		705,		2.004,		-20739,		-0.63,	-0.44,		1000000.00,	-1,		1000000.00,		-1,		0.00,  Not sold yet
13042021_19:57:23,	2.219,	2.236,		704,		2.004,		-20740,		-0.74,	0.06,		1000000.00,	-1,		1000000.00,		-1,		0.00,  Not sold yet
13042021_19:57:34,	2.219,	2.236,		703,		2.004,		-20741,		-0.72,	0.41,		1000000.00,	-1,		1000000.00,		-1,		0.00,  Not sold yet
13042021_19:57:45,	2.219,	2.236,		702,		2.004,		-20742,		-0.76,	0.28,		1000000.00,	-1,		1000000.00,		-1,		0.00,  Not sold yet
13042021_19:57:56,	2.219,	2.236,		701,		2.004,		-20743,		-0.76,	0.08,		1000000.00,	-1,		1000000.00,		-1,		0.00,  Not sold yet
13042021_19:58:06,	2.228,	2.236,		700,		2.004,		-20744,		-0.36,	-0.17,		1000000.00,	-1,		1000000.00,		-1,		0.00,  Not sold yet
13042021_19:58:17,	2.214,	2.236,		699,		2.004,		-20745,		-0.94,	-0.09,		1000000.00,	-1,		1000000.00,		-1,		0.00,  Not sold yet
13042021_19:58:27,	2.219,	2.236,		698,		2.004,		-20746,		-0.72,	0.07,		1000000.00,	-1,		1000000.00,		-1,		0.00,  Not sold yet
13042021_19:58:38,	2.220,	2.236,		697,		2.004,		-20747,		-0.68,	0.14,		1000000.00,	-1,		1000000.00,		-1,		0.00,  Not sold yet
13042021_19:58:48,	2.220,	2.236,		696,		2.004,		-20748,		-0.68,	0.02,		1000000.00,	-1,		1000000.00,		-1,		0.00,  Not sold yet
13042021_19:58:58,	2.227,	2.236,		695,		2.004,		-20749,		-0.37,	-0.31,		1000000.00,	-1,		1000000.00,		-1,		0.00,  Not sold yet
13042021_19:59:09,	2.226,	2.236,		694,		2.004,		-20750,		-0.44,	-0.30,		1000000.00,	-1,		1000000.00,		-1,		0.00,  Not sold yet
13042021_19:59:19,	2.220,	2.236,		693,		2.004,		-20751,		-0.69,	-0.11,		1000000.00,	-1,		1000000.00,		-1,		0.00,  Not sold yet
13042021_19:59:30,	2.221,	2.236,		692,		2.004,		-20752,		-0.66,	0.16,		1000000.00,	-1,		1000000.00,		-1,		0.00,  Not sold yet
13042021_19:59:41,	2.221,	2.236,		691,		2.004,		-20753,		-0.64,	0.25,		1000000.00,	-1,		1000000.00,		-1,		0.00,  Not sold yet
13042021_19:59:52,	2.221,	2.236,		690,		2.004,		-20754,		-0.64,	0.07,		1000000.00,	-1,		1000000.00,		-1,		0.00,  Not sold yet
13042021_20:00:03,	2.224,	2.236,		689,		2.004,		-20755,		-0.52,	-0.10,		1000000.00,	-1,		1000000.00,		-1,		0.00,  Not sold yet
13042021_20:00:13,	2.224,	2.236,		688,		2.004,		-20756,		-0.53,	-0.13,		1000000.00,	-1,		1000000.00,		-1,		0.00,  Not sold yet
13042021_20:00:23,	2.212,	2.236,		687,		2.004,		-20757,		-1.06,	0.16,		1000000.00,	-1,		1000000.00,		-1,		0.00,  Not sold yet
13042021_20:00:34,	2.213,	2.236,		686,		2.004,		-20758,		-1.00,	0.45,		1000000.00,	-1,		1000000.00,		-1,		0.00,  Not sold yet
13042021_20:00:44,	2.213,	2.236,		685,		2.004,		-20759,		-1.00,	0.47,		1000000.00,	-1,		1000000.00,		-1,		0.00,  Not sold yet
13042021_20:00:54,	2.213,	2.236,		684,		2.004,		-20760,		-0.99,	0.20,		1000000.00,	-1,		1000000.00,		-1,		0.00,  Not sold yet
13042021_20:01:05,	2.213,	2.236,		683,		2.004,		-20761,		-1.00,	-0.04,		1000000.00,	-1,		1000000.00,		-1,		0.00,  Not sold yet
13042021_20:01:15,	2.213,	2.236,		682,		2.004,		-20762,		-1.00,	0.00,		1000000.00,	-1,		1000000.00,		-1,		0.00,  Not sold yet
13042021_20:01:26,	2.218,	2.236,		681,		2.004,		-20763,		-0.80,	-0.10,		1000000.00,	-1,		1000000.00,		-1,		0.00,  Not sold yet
13042021_20:01:37,	2.213,	2.236,		680,		2.004,		-20764,		-1.00,	-0.10,		1000000.00,	-1,		1000000.00,		-1,		0.00,  Not sold yet
13042021_20:01:49,	2.213,	2.236,		679,		2.004,		-20765,		-1.00,	0.00,		1000000.00,	-1,		1000000.00,		-1,		0.00,  Not sold yet
13042021_20:01:59,	2.213,	2.236,		678,		2.004,		-20766,		-1.00,	0.10,		1000000.00,	-1,		1000000.00,		-1,		0.00,  Not sold yet
13042021_20:02:10,	2.213,	2.236,		677,		2.004,		-20767,		-1.00,	0.10,		1000000.00,	-1,		1000000.00,		-1,		0.00,  Not sold yet
13042021_20:02:20,	2.213,	2.236,		676,		2.004,		-20768,		-1.00,	0.00,		1000000.00,	-1,		1000000.00,		-1,		0.00,  Not sold yet
13042021_20:02:30,	2.213,	2.236,		675,		2.004,		-20769,		-1.00,	0.00,		1000000.00,	-1,		1000000.00,		-1,		0.00,  Not sold yet
13042021_20:02:41,	2.213,	2.236,		674,		2.004,		-20770,		-1.00,	0.00,		1000000.00,	-1,		1000000.00,		-1,		0.00,  Not sold yet
13042021_20:02:51,	2.217,	2.236,		673,		2.004,		-20771,		-0.82,	-0.09,		1000000.00,	-1,		1000000.00,		-1,		0.00,  Not sold yet
13042021_20:03:01,	2.218,	2.236,		672,		2.004,		-20772,		-0.80,	-0.19,		1000000.00,	-1,		1000000.00,		-1,		0.00,  Not sold yet
13042021_20:03:13,	2.218,	2.236,		671,		2.004,		-20773,		-0.80,	-0.21,		1000000.00,	-1,		1000000.00,		-1,		0.00,  Not sold yet
13042021_20:03:23,	2.202,	2.236,		670,		2.004,		-20774,		-1.51,	0.24,		1000000.00,	-1,		1000000.00,		-1,		0.00,  Not sold yet
13042021_20:03:34,	2.202,	2.236,		669,		2.004,		-20775,		-1.51,	0.71,		1000000.00,	-1,		1000000.00,		-1,		0.00,  Not sold yet
13042021_20:03:45,	2.211,	2.236,		668,		2.004,		-20776,		-1.08,	0.51,		1000000.00,	-1,		1000000.00,		-1,		0.00,  Not sold yet
13042021_20:03:56,	2.212,	2.236,		667,		2.004,		-20777,		-1.03,	-0.10,		1000000.00,	-1,		1000000.00,		-1,		0.00,  Not sold yet
13042021_20:04:07,	2.212,	2.236,		666,		2.004,		-20778,		-1.03,	-0.49,		1000000.00,	-1,		1000000.00,		-1,		0.00,  Not sold yet
13042021_20:04:17,	2.214,	2.236,		665,		2.004,		-20779,		-0.97,	-0.30,		1000000.00,	-1,		1000000.00,		-1,		0.00,  Not sold yet
13042021_20:04:28,	2.216,	2.236,		664,		2.004,		-20780,		-0.85,	-0.15,		1000000.00,	-1,		1000000.00,		-1,		0.00,  Not sold yet
13042021_20:04:38,	2.212,	2.236,		663,		2.004,		-20781,		-1.06,	-0.08,		1000000.00,	-1,		1000000.00,		-1,		0.00,  Not sold yet
13042021_20:04:48,	2.213,	2.236,		662,		2.004,		-20782,		-1.02,	0.04,		1000000.00,	-1,		1000000.00,		-1,		0.00,  Not sold yet
13042021_20:04:59,	2.213,	2.236,		661,		2.004,		-20783,		-1.02,	0.11,		1000000.00,	-1,		1000000.00,		-1,		0.00,  Not sold yet
13042021_20:05:09,	2.213,	2.236,		660,		2.004,		-20784,		-1.01,	0.06,		1000000.00,	-1,		1000000.00,		-1,		0.00,  Not sold yet
13042021_20:05:19,	2.216,	2.236,		659,		2.004,		-20785,		-0.86,	-0.11,		1000000.00,	-1,		1000000.00,		-1,		0.00,  Not sold yet
13042021_20:05:30,	2.218,	2.236,		658,		2.004,		-20786,		-0.80,	-0.19,		1000000.00,	-1,		1000000.00,		-1,		0.00,  Not sold yet
13042021_20:05:41,	2.218,	2.236,		657,		2.004,		-20787,		-0.80,	-0.21,		1000000.00,	-1,		1000000.00,		-1,		0.00,  Not sold yet
13042021_20:05:53,	2.218,	2.236,		656,		2.004,		-20788,		-0.80,	-0.13,		1000000.00,	-1,		1000000.00,		-1,		0.00,  Not sold yet
13042021_20:06:04,	2.214,	2.236,		655,		2.004,		-20789,		-0.96,	0.05,		1000000.00,	-1,		1000000.00,		-1,		0.00,  Not sold yet
13042021_20:06:15,	2.214,	2.236,		654,		2.004,		-20790,		-0.96,	0.16,		1000000.00,	-1,		1000000.00,		-1,		0.00,  Not sold yet
13042021_20:06:25,	2.215,	2.236,		653,		2.004,		-20791,		-0.94,	0.15,		1000000.00,	-1,		1000000.00,		-1,		0.00,  Not sold yet
13042021_20:06:35,	2.216,	2.236,		652,		2.004,		-20792,		-0.89,	0.03,		1000000.00,	-1,		1000000.00,		-1,		0.00,  Not sold yet
13042021_20:06:46,	2.216,	2.236,		651,		2.004,		-20793,		-0.89,	-0.07,		1000000.00,	-1,		1000000.00,		-1,		0.00,  Not sold yet
13042021_20:06:56,	2.216,	2.236,		650,		2.004,		-20794,		-0.89,	-0.06,		1000000.00,	-1,		1000000.00,		-1,		0.00,  Not sold yet
13042021_20:07:06,	2.216,	2.236,		649,		2.004,		-20795,		-0.89,	-0.03,		1000000.00,	-1,		1000000.00,		-1,		0.00,  Not sold yet
13042021_20:07:17,	2.215,	2.236,		648,		2.004,		-20796,		-0.91,	0.01,		1000000.00,	-1,		1000000.00,		-1,		0.00,  Not sold yet
13042021_20:07:27,	2.215,	2.236,		647,		2.004,		-20797,		-0.91,	0.03,		1000000.00,	-1,		1000000.00,		-1,		0.00,  Not sold yet
13042021_20:07:38,	2.215,	2.236,		646,		2.004,		-20798,		-0.91,	0.03,		1000000.00,	-1,		1000000.00,		-1,		0.00,  Not sold yet
13042021_20:07:49,	2.216,	2.236,		645,		2.004,		-20799,		-0.86,	-0.01,		1000000.00,	-1,		1000000.00,		-1,		0.00,  Not sold yet
13042021_20:08:01,	2.215,	2.236,		644,		2.004,		-20800,		-0.92,	-0.02,		1000000.00,	-1,		1000000.00,		-1,		0.00,  Not sold yet
13042021_20:08:11,	2.215,	2.236,		643,		2.004,		-20801,		-0.93,	0.01,		1000000.00,	-1,		1000000.00,		-1,		0.00,  Not sold yet
13042021_20:08:22,	2.215,	2.236,		642,		2.004,		-20802,		-0.93,	0.04,		1000000.00,	-1,		1000000.00,		-1,		0.00,  Not sold yet
13042021_20:08:32,	2.218,	2.236,		641,		2.004,		-20803,		-0.80,	-0.03,		1000000.00,	-1,		1000000.00,		-1,		0.00,  Not sold yet
13042021_20:08:42,	2.216,	2.236,		640,		2.004,		-20804,		-0.89,	-0.08,		1000000.00,	-1,		1000000.00,		-1,		0.00,  Not sold yet
13042021_20:08:53,	2.215,	2.236,		639,		2.004,		-20805,		-0.93,	-0.02,		1000000.00,	-1,		1000000.00,		-1,		0.00,  Not sold yet
13042021_20:09:03,	2.215,	2.236,		638,		2.004,		-20806,		-0.93,	0.07,		1000000.00,	-1,		1000000.00,		-1,		0.00,  Not sold yet
13042021_20:09:14,	2.215,	2.236,		637,		2.004,		-20807,		-0.93,	0.09,		1000000.00,	-1,		1000000.00,		-1,		0.00,  Not sold yet
13042021_20:09:24,	2.215,	2.236,		636,		2.004,		-20808,		-0.92,	0.02,		1000000.00,	-1,		1000000.00,		-1,		0.00,  Not sold yet
13042021_20:09:34,	2.215,	2.236,		635,		2.004,		-20809,		-0.92,	-0.01,		1000000.00,	-1,		1000000.00,		-1,		0.00,  Not sold yet
13042021_20:09:45,	2.215,	2.236,		634,		2.004,		-20810,		-0.92,	-0.01,		1000000.00,	-1,		1000000.00,		-1,		0.00,  Not sold yet
13042021_20:09:57,	2.215,	2.236,		633,		2.004,		-20811,		-0.92,	-0.01,		1000000.00,	-1,		1000000.00,		-1,		0.00,  Not sold yet
13042021_20:10:08,	2.218,	2.236,		632,		2.004,		-20812,		-0.80,	-0.06,		1000000.00,	-1,		1000000.00,		-1,		0.00,  Not sold yet
13042021_20:10:18,	2.218,	2.236,		631,		2.004,		-20813,		-0.80,	-0.12,		1000000.00,	-1,		1000000.00,		-1,		0.00,  Not sold yet
13042021_20:10:28,	2.218,	2.236,		630,		2.004,		-20814,		-0.80,	-0.12,		1000000.00,	-1,		1000000.00,		-1,		0.00,  Not sold yet
13042021_20:10:39,	2.215,	2.236,		629,		2.004,		-20815,		-0.94,	0.01,		1000000.00,	-1,		1000000.00,		-1,		0.00,  Not sold yet
13042021_20:10:49,	2.213,	2.236,		628,		2.004,		-20816,		-0.98,	0.16,		1000000.00,	-1,		1000000.00,		-1,		0.00,  Not sold yet
13042021_20:10:59,	2.214,	2.236,		627,		2.004,		-20817,		-0.98,	0.18,		1000000.00,	-1,		1000000.00,		-1,		0.00,  Not sold yet
13042021_20:11:10,	2.214,	2.236,		626,		2.004,		-20818,		-0.96,	0.10,		1000000.00,	-1,		1000000.00,		-1,		0.00,  Not sold yet
13042021_20:11:20,	2.216,	2.236,		625,		2.004,		-20819,		-0.86,	-0.05,		1000000.00,	-1,		1000000.00,		-1,		0.00,  Not sold yet
13042021_20:11:31,	2.214,	2.236,		624,		2.004,		-20820,		-0.97,	-0.07,		1000000.00,	-1,		1000000.00,		-1,		0.00,  Not sold yet
13042021_20:11:41,	2.214,	2.236,		623,		2.004,		-20821,		-0.97,	-0.00,		1000000.00,	-1,		1000000.00,		-1,		0.00,  Not sold yet
13042021_20:11:53,	2.217,	2.236,		622,		2.004,		-20822,		-0.85,	-0.00,		1000000.00,	-1,		1000000.00,		-1,		0.00,  Not sold yet
13042021_20:12:04,	2.216,	2.236,		621,		2.004,		-20823,		-0.85,	-0.07,		1000000.00,	-1,		1000000.00,		-1,		0.00,  Not sold yet
13042021_20:12:14,	2.216,	2.236,		620,		2.004,		-20824,		-0.85,	-0.12,		1000000.00,	-1,		1000000.00,		-1,		0.00,  Not sold yet
13042021_20:12:25,	2.216,	2.236,		619,		2.004,		-20825,		-0.85,	-0.06,		1000000.00,	-1,		1000000.00,		-1,		0.00,  Not sold yet
13042021_20:12:35,	2.216,	2.236,		618,		2.004,		-20826,		-0.85,	0.00,		1000000.00,	-1,		1000000.00,		-1,		0.00,  Not sold yet
13042021_20:12:46,	2.216,	2.236,		617,		2.004,		-20827,		-0.85,	0.00,		1000000.00,	-1,		1000000.00,		-1,		0.00,  Not sold yet
13042021_20:12:56,	2.216,	2.236,		616,		2.004,		-20828,		-0.85,	0.00,		1000000.00,	-1,		1000000.00,		-1,		0.00,  Not sold yet
13042021_20:13:07,	2.216,	2.236,		615,		2.004,		-20829,		-0.85,	0.00,		1000000.00,	-1,		1000000.00,		-1,		0.00,  Not sold yet
13042021_20:13:17,	2.216,	2.236,		614,		2.004,		-20830,		-0.85,	0.00,		1000000.00,	-1,		1000000.00,		-1,		0.00,  Not sold yet
13042021_20:13:27,	2.216,	2.236,		613,		2.004,		-20831,		-0.85,	0.00,		1000000.00,	-1,		1000000.00,		-1,		0.00,  Not sold yet
13042021_20:13:38,	2.216,	2.236,		612,		2.004,		-20832,		-0.85,	0.00,		1000000.00,	-1,		1000000.00,		-1,		0.00,  Not sold yet
13042021_20:13:48,	2.216,	2.236,		611,		2.004,		-20833,		-0.85,	0.00,		1000000.00,	-1,		1000000.00,		-1,		0.00,  Not sold yet
13042021_20:14:00,	2.212,	2.236,		610,		2.004,		-20834,		-1.03,	0.09,		1000000.00,	-1,		1000000.00,		-1,		0.00,  Not sold yet
13042021_20:14:10,	2.217,	2.236,		609,		2.004,		-20835,		-0.83,	0.08,		1000000.00,	-1,		1000000.00,		-1,		0.00,  Not sold yet
13042021_20:14:21,	2.217,	2.236,		608,		2.004,		-20836,		-0.83,	-0.02,		1000000.00,	-1,		1000000.00,		-1,		0.00,  Not sold yet
13042021_20:14:31,	2.217,	2.236,		607,		2.004,		-20837,		-0.83,	-0.12,		1000000.00,	-1,		1000000.00,		-1,		0.00,  Not sold yet
13042021_20:14:41,	2.215,	2.236,		606,		2.004,		-20838,		-0.91,	-0.06,		1000000.00,	-1,		1000000.00,		-1,		0.00,  Not sold yet
13042021_20:14:52,	2.226,	2.236,		605,		2.004,		-20839,		-0.44,	-0.16,		1000000.00,	-1,		1000000.00,		-1,		0.00,  Not sold yet
13042021_20:15:02,	2.216,	2.236,		604,		2.004,		-20840,		-0.88,	-0.17,		1000000.00,	-1,		1000000.00,		-1,		0.00,  Not sold yet
13042021_20:15:13,	2.215,	2.236,		603,		2.004,		-20841,		-0.92,	0.03,		1000000.00,	-1,		1000000.00,		-1,		0.00,  Not sold yet
13042021_20:15:23,	2.217,	2.236,		602,		2.004,		-20842,		-0.84,	0.21,		1000000.00,	-1,		1000000.00,		-1,		0.00,  Not sold yet
13042021_20:15:33,	2.217,	2.236,		601,		2.004,		-20843,		-0.84,	0.18,		1000000.00,	-1,		1000000.00,		-1,		0.00,  Not sold yet
13042021_20:15:44,	2.217,	2.236,		600,		2.004,		-20844,		-0.84,	-0.06,		1000000.00,	-1,		1000000.00,		-1,		0.00,  Not sold yet